Location: Baili�vre
(50.0696°N, 4.2409°E)
Time: 21:37:35
(UTC+00:00)

Terra - Pass Details

Date: 08 August 2020
Orbit: 701 x 703 km, 98.2° (Epoch: 22 September)

Event Time Altitude Azimuth Distance (km) Brightness Sun altitude
Exits shadow 21:59:45 31° 200° (SSW) 1,235 2.7 -19.9°
Maximum altitude 22:01:47 52° 260° (W) 878 2.4 -20.1°
Drops below altitude 10° 22:06:28 10° 337° (NNW) 2,184 5.6 -20.4°
Sets 22:08:47 0° 342° (NNW) 3,107 6.7 -20.6°
